"Pseudo-MPEC" for Hnai113

Created 2022 Nov 26 22:22:13 UT using Find_Orb

Click here for an explanation of pseudo-MPECs

 
 Astrometry: 
     Hnai113*KC2022 11 14)cG[?ln_6I^T)n$D:;TUw+qF3G'dY!AstrometryEyredacted;n221
     Hnai113 KC2022 11 14:^*=VBqclick_6u)miE!DvapBt=I6qheregos3nAfor',%DbHo!8221
     Hnai113 KC2022 11 14D_+explanation3^-1ZH'VByZXpG'CZvda\D_ylTT*xmj1QQwey$221

Station data:
(221) IAS Observatory, Hakos  (S23.236367 E16.361700)  Namibia.  Observers D.
   Husar, L. Demetz. Measurer D. Husar. 0.2-m f/3 Riccardi-Honders + CCD0.5-m
   f/6.8 Corrected Dall-Kirkham + CCD.

Orbital elements:  Hnai113
   Perihelion 2022 Nov 27.90839 +/- 35.3 TT = 21:48:05 (JD 2459911.40839)
Epoch 2022 Nov 15.0 TT = JDT 2459898.5   Earth MOID: 0.0330   AutoNEOCP
M 349.69729042 +/- 21               (J2000 ecliptic)
n   0.79814048 +/- 0.402            Peri.  186.68224 +/- 60
a   1.15102075 +/- 0.387            Node   239.18823 +/- 37
e   0.1137238 +/- 0.245             Incl.    1.15275 +/- 2.6
P   1.23/451.04d           H 27.0   G  0.15   U 12.1  SR
q 1.02012226 +/- 0.284    Q 1.28191924 +/- 43.1
From 3 observations 2022 Nov. 14 (16.7 min); mean residual 0".69
Residuals in arcseconds: 
221114 221  .09+  .67+    221114 221  .19-  1.4-    221114 221  .10+  .69+    

Ephemerides (geocentric):
Date (UTC) HH   RA             Dec           delta  r     elong  mag " sig PA
---- --------  ------------   ------------  ------ ------ -----  --- --------
2022 11 26 22  05 21 48.570   +19 51 06.08  .03463 1.0201 163.0 20.6  71d  16
2022 11 26 23  05 21 58.107   +19 49 47.39  .03463 1.0201 163.0 20.6  71d  16
2022 11 27 00  05 22 07.633   +19 48 28.71  .03464 1.0201 163.0 20.6  71d  16
2022 11 27 01  05 22 17.148   +19 47 10.04  .03465 1.0201 163.0 20.6  71d  16
2022 11 27 02  05 22 26.650   +19 45 51.38  .03465 1.0201 163.0 20.6  71d  16
2022 11 27 03  05 22 36.142   +19 44 32.73  .03466 1.0201 163.0 20.6  71d  16
2022 11 27 04  05 22 45.622   +19 43 14.10  .03466 1.0201 163.0 20.6  71d  16
2022 11 27 05  05 22 55.090   +19 41 55.47  .03467 1.0201 163.0 20.6  71d  16
2022 11 27 06  05 23 04.547   +19 40 36.86  .03468 1.0201 163.0 20.6  71d  16
2022 11 27 07  05 23 13.992   +19 39 18.26  .03468 1.0201 163.0 20.6  71d  16
2022 11 27 08  05 23 23.426   +19 37 59.67  .03469 1.0201 163.0 20.6  71d  16
2022 11 27 09  05 23 32.849   +19 36 41.10  .03470 1.0201 163.0 20.6  71d  16
2022 11 27 10  05 23 42.260   +19 35 22.54  .03470 1.0201 163.0 20.6  71d  16
2022 11 27 11  05 23 51.659   +19 34 03.99  .03471 1.0201 163.0 20.6  71d  16
2022 11 27 12  05 24 01.047   +19 32 45.46  .03472 1.0201 163.0 20.6  71d  16
2022 11 27 13  05 24 10.423   +19 31 26.95  .03472 1.0201 163.0 20.6  71d  16
2022 11 27 14  05 24 19.788   +19 30 08.45  .03473 1.0201 163.0 20.6  71d  16
2022 11 27 15  05 24 29.142   +19 28 49.97  .03474 1.0201 163.0 20.6  71d  16
2022 11 27 16  05 24 38.483   +19 27 31.51  .03474 1.0201 163.0 20.6  71d  16
2022 11 27 17  05 24 47.814   +19 26 13.07  .03475 1.0201 163.0 20.6  71d  16
2022 11 27 18  05 24 57.133   +19 24 54.64  .03476 1.0201 163.0 20.6  71d  16
2022 11 27 19  05 25 06.440   +19 23 36.23  .03476 1.0201 163.0 20.6  71d  16
2022 11 27 20  05 25 15.736   +19 22 17.84  .03477 1.0201 163.0 20.6  71d  16
2022 11 27 21  05 25 25.020   +19 20 59.48  .03478 1.0201 163.0 20.6  71d  16
2022 11 27 22  05 25 34.293   +19 19 41.13  .03478 1.0201 163.0 20.6  71d  16
2022 11 27 23  05 25 43.554   +19 18 22.80  .03479 1.0201 163.0 20.6  71d  16
2022 11 28 00  05 25 52.803   +19 17 04.49  .03480 1.0201 163.0 20.6  71d  16
2022 11 28 01  05 26 02.041   +19 15 46.20  .03481 1.0201 163.0 20.6  71d  16
2022 11 28 02  05 26 11.268   +19 14 27.94  .03481 1.0201 163.0 20.6  71d  16
2022 11 28 03  05 26 20.483   +19 13 09.70  .03482 1.0201 163.0 20.6  71d  16
2022 11 28 04  05 26 29.686   +19 11 51.48  .03483 1.0201 163.0 20.6  71d  16
2022 11 28 05  05 26 38.878   +19 10 33.28  .03484 1.0201 163.0 20.6  71d  16
2022 11 28 06  05 26 48.059   +19 09 15.11  .03484 1.0201 163.0 20.6  71d  16
2022 11 28 07  05 26 57.228   +19 07 56.97  .03485 1.0201 163.0 20.6  71d  16
2022 11 28 08  05 27 06.385   +19 06 38.84  .03486 1.0201 163.0 20.6  71d  16
2022 11 28 09  05 27 15.531   +19 05 20.75  .03487 1.0201 163.0 20.6  71d  16
2022 11 28 10  05 27 24.665   +19 04 02.67  .03487 1.0201 163.0 20.6  72d  16
2022 11 28 11  05 27 33.787   +19 02 44.63  .03488 1.0201 163.0 20.6  72d  16
2022 11 28 12  05 27 42.898   +19 01 26.61  .03489 1.0201 163.0 20.6  72d  16
2022 11 28 13  05 27 51.998   +19 00 08.62  .03490 1.0201 163.0 20.6  72d  16
2022 11 28 14  05 28 01.086   +18 58 50.65  .03491 1.0201 163.1 20.6  72d  16
2022 11 28 15  05 28 10.162   +18 57 32.71  .03491 1.0201 163.1 20.6  72d  16
2022 11 28 16  05 28 19.227   +18 56 14.80  .03492 1.0201 163.1 20.6  72d  16
2022 11 28 17  05 28 28.280   +18 54 56.92  .03493 1.0201 163.1 20.6  72d  16
2022 11 28 18  05 28 37.322   +18 53 39.07  .03494 1.0201 163.1 20.6  72d  16
2022 11 28 19  05 28 46.352   +18 52 21.25  .03495 1.0201 163.1 20.6  72d  16
2022 11 28 20  05 28 55.370   +18 51 03.46  .03495 1.0201 163.1 20.6  72d  16
2022 11 28 21  05 29 04.377   +18 49 45.70  .03496 1.0201 163.1 20.6  72d  16